Flag for Canada Weather past 2 weeks in Riverview, New Brunswick, Canada

Now
73 °F

Partly sunny.


Feels Like: 77 °F
Forecast: 53 / 77 °F
Wind: 10 mph from South

Location: Moncton

Current Time: Jul 1, 2015 at 5:01:25 PM

Latest Report: Jul 1, 2015 at 4:00 PM


Visibility: 15 mi

Pressure: 29.88 "Hg

Humidity: 53%

Dew point: 55 °F

Location of RiverviewLocation

Historic Weather in Riverview — Graph

°F

Riverview temperature yesterday

Maximum temperature yesterday: 73 °F (at 1:00 PM)
Minimum temperature yesterday: 50 °F (at 5:00 AM)
Average temperature yesterday: 62 °F

Past Weeks' High & Low Weather Summary

 TemperatureHumidityPressure
High75 °F (Jun 18, 12:00 PM)100% (Jun 16, 9:00 PM)30.18 "Hg (Jun 16, 9:00 PM)
Low43 °F (Jun 21, 6:00 AM)33% (Jun 17, 5:00 PM)29.64 "Hg (Jun 24, 7:00 AM)
Average58 °F77%29.92 "Hg
* Reported Jun 16 4:00 PM — Jul 1 4:00 PM, Riverview, Weather by CustomWeather, © 2015

Note: Actual official high and low records may vary slightly from our data, if they occured in-between our weather recording intervals... More about our weather records

Advertising

Riverview weather history for previous 24 hours

 ConditionsComfort  
Time TempWeatherWind HumidityBarometerVisibility
4:00 PM
Wed, Jul 1
73 °FPartly sunny.10 mph53%29.88 "Hg15 mi
3:00 PM75 °FPartly sunny.12 mph54%29.90 "Hg15 mi
2:00 PM73 °FPartly sunny.9 mph57%29.92 "Hg15 mi
1:00 PM75 °FPartly sunny.10 mph57%29.94 "Hg15 mi
12:00 PM75 °FBroken clouds.10 mph57%29.95 "Hg15 mi
11:00 AM72 °FPartly sunny.10 mph69%29.96 "Hg15 mi
10:00 AM70 °FPassing clouds.5 mph69%29.97 "Hg15 mi
9:00 AM66 °FPassing clouds.5 mph73%29.98 "Hg15 mi
8:00 AM59 °FScattered clouds.3 mph88%29.99 "Hg15 mi
7:00 AM54 °FPassing clouds.6 mph94%29.98 "Hg15 mi
6:00 AM52 °FPassing clouds.2 mph94%29.98 "Hg15 mi
5:00 AM52 °FPassing clouds.2 mph94%29.99 "Hg15 mi
4:00 AM54 °FPassing clouds.6 mph94%29.98 "Hg15 mi
3:00 AM55 °FPassing clouds.6 mph88%29.98 "Hg15 mi
2:00 AM55 °FPassing clouds.2 mph94%29.99 "Hg15 mi
1:00 AM57 °FPassing clouds.6 mph88%29.98 "Hg15 mi
12:00 AM59 °FPassing clouds.6 mph88%29.97 "Hg15 mi
11:00 PM
Tue, Jun 30
59 °FPassing clouds.2 mph88%29.96 "Hg15 mi
10:00 PM64 °FPassing clouds.2 mph78%29.96 "Hg15 mi
9:00 PM68 °FPassing clouds.8 mph69%29.95 "Hg15 mi
8:00 PM70 °FScattered clouds.No wind69%29.94 "Hg15 mi
7:00 PM72 °FPartly sunny.3 mph65%29.94 "Hg15 mi
6:00 PM72 °FBroken clouds.10 mph57%29.93 "Hg15 mi
5:00 PM73 °FBroken clouds.16 mph50%29.93 "Hg15 mi
Weather by CustomWeather, © 2015

See weather overviewHow to use our weather pages